Year,Month,Day,Hour,Minute,Value (Times are PST for windgust in km/hr)
2018,07,13,00,00,9.60
2018,07,13,00,01,9.60
2018,07,13,00,02,11.30
2018,07,13,00,03,6.40
2018,07,13,00,04,11.30
2018,07,13,00,05,4.80
2018,07,13,00,06,4.80
2018,07,13,00,07,6.40
2018,07,13,00,08,8.10
2018,07,13,00,09,6.40
2018,07,13,00,10,3.20
2018,07,13,00,11,3.20
2018,07,13,00,12,8.10
2018,07,13,00,13,6.40
2018,07,13,00,14,11.30
2018,07,13,00,15,4.80
2018,07,13,00,16,1.60
2018,07,13,00,17,1.60
2018,07,13,00,18,3.20
2018,07,13,00,19,1.60
2018,07,13,00,20,6.40
2018,07,13,00,21,4.80
2018,07,13,00,22,6.40
2018,07,13,00,23,6.40
2018,07,13,00,24,1.60
2018,07,13,00,25,4.80
2018,07,13,00,26,3.20
2018,07,13,00,27,3.20
2018,07,13,00,28,4.80
2018,07,13,00,35,4.80
2018,07,13,00,36,3.20
2018,07,13,00,37,3.20
2018,07,13,00,40,3.20
2018,07,13,00,41,3.20
2018,07,13,00,42,3.20
2018,07,13,00,43,3.20
2018,07,13,00,44,4.80
2018,07,13,00,45,3.20
2018,07,13,00,46,6.40
2018,07,13,00,47,4.80
2018,07,13,00,48,3.20
2018,07,13,00,49,1.60
2018,07,13,00,50,4.80
2018,07,13,00,51,3.20
2018,07,13,00,52,3.20
2018,07,13,00,53,6.40
2018,07,13,00,54,3.20
2018,07,13,00,55,1.60
2018,07,13,00,56,4.80
2018,07,13,00,57,3.20
2018,07,13,00,58,1.60
2018,07,13,00,59,1.60
2018,07,13,01,01,1.60
2018,07,13,01,02,3.20
2018,07,13,01,03,1.60
2018,07,13,01,10,1.60
2018,07,13,01,11,3.20
2018,07,13,01,12,3.20
2018,07,13,01,13,3.20
2018,07,13,01,14,3.20
2018,07,13,01,15,3.20
2018,07,13,01,16,1.60
2018,07,13,01,18,3.20
2018,07,13,01,19,3.20
2018,07,13,01,20,3.20
2018,07,13,01,21,3.20
2018,07,13,01,22,3.20
2018,07,13,01,23,3.20
2018,07,13,01,24,3.20
2018,07,13,01,27,1.60
2018,07,13,01,29,1.60
2018,07,13,01,30,1.60
2018,07,13,01,31,1.60
2018,07,13,01,33,1.60
2018,07,13,01,34,1.60
2018,07,13,01,35,1.60
2018,07,13,01,36,1.60
2018,07,13,01,37,1.60
2018,07,13,01,38,1.60
2018,07,13,01,43,1.60
2018,07,13,01,44,3.20
2018,07,13,01,45,3.20
2018,07,13,01,46,6.40
2018,07,13,01,47,3.20
2018,07,13,01,48,3.20
2018,07,13,01,51,1.60
2018,07,13,01,52,1.60
2018,07,13,01,53,3.20
2018,07,13,01,54,1.60
2018,07,13,01,55,3.20
2018,07,13,02,00,3.20
2018,07,13,02,05,1.60
2018,07,13,02,07,1.60
2018,07,13,02,08,1.60
2018,07,13,02,09,1.60
2018,07,13,02,11,1.60
2018,07,13,02,12,3.20
2018,07,13,02,13,1.60
2018,07,13,02,14,3.20
2018,07,13,02,15,1.60
2018,07,13,02,23,1.60
2018,07,13,02,24,1.60
2018,07,13,02,25,3.20
2018,07,13,02,26,1.60
2018,07,13,02,28,1.60
2018,07,13,02,29,1.60
2018,07,13,02,30,3.20
2018,07,13,02,31,1.60
2018,07,13,02,36,1.60
2018,07,13,02,37,1.60
2018,07,13,02,39,3.20
2018,07,13,02,40,3.20
2018,07,13,02,42,1.60
2018,07,13,02,43,3.20
2018,07,13,02,44,3.20
2018,07,13,02,45,3.20
2018,07,13,02,46,3.20
2018,07,13,02,47,3.20
2018,07,13,02,48,3.20
2018,07,13,02,49,3.20
2018,07,13,02,50,3.20
2018,07,13,02,51,3.20
2018,07,13,02,52,4.80
2018,07,13,02,53,3.20
2018,07,13,02,54,3.20
2018,07,13,02,55,3.20
2018,07,13,02,56,1.60
2018,07,13,02,58,1.60
2018,07,13,02,59,3.20
2018,07,13,03,00,1.60
2018,07,13,03,01,1.60
2018,07,13,03,02,1.60
2018,07,13,03,03,1.60
2018,07,13,03,04,1.60
2018,07,13,03,10,1.60
2018,07,13,03,12,1.60
2018,07,13,03,15,1.60
2018,07,13,03,23,3.20
2018,07,13,03,24,3.20
2018,07,13,03,25,3.20
2018,07,13,03,26,3.20
2018,07,13,03,27,3.20
2018,07,13,03,28,3.20
2018,07,13,03,29,3.20
2018,07,13,03,30,1.60
2018,07,13,03,31,1.60
2018,07,13,03,35,1.60
2018,07,13,03,36,1.60
2018,07,13,03,37,1.60
2018,07,13,03,38,1.60
2018,07,13,03,39,3.20
2018,07,13,03,40,3.20
2018,07,13,03,41,1.60
2018,07,13,03,42,1.60
2018,07,13,03,43,1.60
2018,07,13,03,46,1.60
2018,07,13,03,47,3.20
2018,07,13,03,48,3.20
2018,07,13,03,49,3.20
2018,07,13,03,50,3.20
2018,07,13,03,51,3.20
2018,07,13,03,52,1.60
2018,07,13,03,53,3.20
2018,07,13,03,54,1.60
2018,07,13,03,55,1.60
2018,07,13,03,56,1.60
2018,07,13,03,57,1.60
2018,07,13,03,58,1.60
2018,07,13,03,59,1.60
2018,07,13,04,00,3.20
2018,07,13,04,01,1.60
2018,07,13,04,03,3.20
2018,07,13,04,04,4.80
2018,07,13,04,05,3.20
2018,07,13,04,06,3.20
2018,07,13,04,08,1.60
2018,07,13,04,09,3.20
2018,07,13,04,10,1.60
2018,07,13,04,11,3.20
2018,07,13,04,12,4.80
2018,07,13,04,13,4.80
2018,07,13,04,14,3.20
2018,07,13,04,15,3.20
2018,07,13,04,16,4.80
2018,07,13,04,17,4.80
2018,07,13,04,18,3.20
2018,07,13,04,19,3.20
2018,07,13,04,20,3.20
2018,07,13,04,21,3.20
2018,07,13,04,22,3.20
2018,07,13,04,23,3.20
2018,07,13,04,24,1.60
2018,07,13,04,25,3.20
2018,07,13,04,26,3.20
2018,07,13,04,27,1.60
2018,07,13,04,28,1.60
2018,07,13,04,29,1.60
2018,07,13,04,32,4.80
2018,07,13,04,33,4.80
2018,07,13,04,34,3.20
2018,07,13,04,35,3.20
2018,07,13,04,36,1.60
2018,07,13,04,38,1.60
2018,07,13,04,39,4.80
2018,07,13,04,40,1.60
2018,07,13,04,44,1.60
2018,07,13,04,45,1.60
2018,07,13,04,46,1.60
2018,07,13,04,50,1.60
2018,07,13,04,53,1.60
2018,07,13,04,54,1.60
2018,07,13,04,55,3.20
2018,07,13,04,56,3.20
2018,07,13,04,59,1.60
2018,07,13,05,00,3.20
2018,07,13,05,01,3.20
2018,07,13,05,02,4.80
2018,07,13,05,03,6.40
2018,07,13,05,05,1.60
2018,07,13,05,06,3.20
2018,07,13,05,07,3.20
2018,07,13,05,08,3.20
2018,07,13,05,13,1.60
2018,07,13,05,15,1.60
2018,07,13,05,16,1.60
2018,07,13,05,17,1.60
2018,07,13,05,19,3.20
2018,07,13,05,20,3.20
2018,07,13,05,21,3.20
2018,07,13,05,22,3.20
2018,07,13,05,23,4.80
2018,07,13,05,24,4.80
2018,07,13,05,25,3.20
2018,07,13,05,26,3.20
2018,07,13,05,27,3.20
2018,07,13,05,28,3.20
2018,07,13,05,29,1.60
2018,07,13,05,31,3.20
2018,07,13,05,32,4.80
2018,07,13,05,33,3.20
2018,07,13,05,34,3.20
2018,07,13,05,35,3.20
2018,07,13,05,36,4.80
2018,07,13,05,37,4.80
2018,07,13,05,38,1.60
2018,07,13,05,39,3.20
2018,07,13,05,40,3.20
2018,07,13,05,41,3.20
2018,07,13,05,42,3.20
2018,07,13,05,43,1.60
2018,07,13,05,45,3.20
2018,07,13,05,46,3.20
2018,07,13,05,47,3.20
2018,07,13,05,48,3.20
2018,07,13,05,49,3.20
2018,07,13,05,50,1.60
2018,07,13,05,51,1.60
2018,07,13,05,54,1.60
2018,07,13,05,55,3.20
2018,07,13,05,59,1.60
2018,07,13,06,00,1.60
2018,07,13,06,02,1.60
2018,07,13,06,05,3.20
2018,07,13,06,06,1.60
2018,07,13,06,07,3.20
2018,07,13,06,08,3.20
2018,07,13,06,09,3.20
2018,07,13,06,10,3.20
2018,07,13,06,11,1.60
2018,07,13,06,12,1.60
2018,07,13,06,13,3.20
2018,07,13,06,14,3.20
2018,07,13,06,15,1.60
2018,07,13,06,18,1.60
2018,07,13,06,19,1.60
2018,07,13,06,20,1.60
2018,07,13,06,21,4.80
2018,07,13,06,22,3.20
2018,07,13,06,23,3.20
2018,07,13,06,24,6.40
2018,07,13,06,25,3.20
2018,07,13,06,26,8.10
2018,07,13,06,27,4.80
2018,07,13,06,29,1.60
2018,07,13,06,30,4.80
2018,07,13,06,31,6.40
2018,07,13,06,32,3.20
2018,07,13,06,33,4.80
2018,07,13,06,35,1.60
2018,07,13,06,36,1.60
2018,07,13,06,37,1.60
2018,07,13,06,38,4.80
2018,07,13,06,39,3.20
2018,07,13,06,40,3.20
2018,07,13,06,41,4.80
2018,07,13,06,42,3.20
2018,07,13,06,43,6.40
2018,07,13,06,44,4.80
2018,07,13,06,45,4.80
2018,07,13,06,46,6.40
2018,07,13,06,47,8.10
2018,07,13,06,48,6.40
2018,07,13,06,49,9.60
2018,07,13,06,50,8.10
2018,07,13,06,51,6.40
2018,07,13,06,52,8.10
2018,07,13,06,53,9.60
2018,07,13,06,54,6.40
2018,07,13,06,55,8.10
2018,07,13,06,56,9.60
2018,07,13,06,57,9.60
2018,07,13,06,58,8.10
2018,07,13,06,59,4.80
2018,07,13,07,00,9.60
2018,07,13,07,01,8.10
2018,07,13,07,02,11.30
2018,07,13,07,03,16.10
2018,07,13,07,04,14.50
2018,07,13,07,05,12.90
2018,07,13,07,06,12.90
2018,07,13,07,07,16.10
2018,07,13,07,08,8.10
2018,07,13,07,09,9.60
2018,07,13,07,10,17.70
2018,07,13,07,11,9.60
2018,07,13,07,12,9.60
2018,07,13,07,13,6.40
2018,07,13,07,14,9.60
2018,07,13,07,15,11.30
2018,07,13,07,16,6.40
2018,07,13,07,17,6.40
2018,07,13,07,18,8.10
2018,07,13,07,19,16.10
2018,07,13,07,20,6.40
2018,07,13,07,21,4.80
2018,07,13,07,22,6.40
2018,07,13,07,23,4.80
2018,07,13,07,24,6.40
2018,07,13,07,25,9.60
2018,07,13,07,26,16.10
2018,07,13,07,27,6.40
2018,07,13,07,28,4.80
2018,07,13,07,29,8.10
2018,07,13,07,30,4.80
2018,07,13,07,31,6.40
2018,07,13,07,32,12.90
2018,07,13,07,33,11.30
2018,07,13,07,34,11.30
2018,07,13,07,35,12.90
2018,07,13,07,36,16.10
2018,07,13,07,37,9.60
2018,07,13,07,38,11.30
2018,07,13,07,39,14.50
2018,07,13,07,40,8.10
2018,07,13,07,41,16.10
2018,07,13,07,42,16.10
2018,07,13,07,43,8.10
2018,07,13,07,44,11.30
2018,07,13,07,45,11.30
2018,07,13,07,46,16.10
2018,07,13,07,47,14.50
2018,07,13,07,48,12.90
2018,07,13,07,49,17.70
2018,07,13,07,50,17.70
2018,07,13,07,51,14.50
2018,07,13,07,52,12.90
2018,07,13,07,53,12.90
2018,07,13,07,54,9.60
2018,07,13,07,55,11.30
2018,07,13,07,56,14.50
2018,07,13,07,57,14.50
2018,07,13,07,58,16.10
2018,07,13,07,59,11.30
2018,07,13,08,00,16.10
2018,07,13,08,01,12.90
2018,07,13,08,02,11.30
2018,07,13,08,03,9.60
2018,07,13,08,04,14.50
2018,07,13,08,05,17.70
2018,07,13,08,06,9.60
2018,07,13,08,07,8.10
2018,07,13,08,08,11.30
2018,07,13,08,09,16.10
2018,07,13,08,10,17.70
2018,07,13,08,11,9.60
2018,07,13,08,12,12.90
2018,07,13,08,13,11.30
2018,07,13,08,14,12.90
2018,07,13,08,15,11.30
2018,07,13,08,16,14.50
2018,07,13,08,17,14.50
2018,07,13,08,18,14.50
2018,07,13,08,19,11.30
2018,07,13,08,20,9.60
2018,07,13,08,21,9.60
2018,07,13,08,22,14.50
2018,07,13,08,23,16.10
2018,07,13,08,24,14.50
2018,07,13,08,25,11.30
2018,07,13,08,26,9.60
2018,07,13,08,27,16.10
2018,07,13,08,28,12.90
2018,07,13,08,29,14.50
2018,07,13,08,30,19.30
2018,07,13,08,31,17.70
2018,07,13,08,32,19.30
2018,07,13,08,33,14.50
2018,07,13,08,34,11.30
2018,07,13,08,35,11.30
2018,07,13,08,36,14.50
2018,07,13,08,37,16.10
2018,07,13,08,38,20.90
2018,07,13,08,39,17.70
2018,07,13,08,40,11.30
2018,07,13,08,41,11.30
2018,07,13,08,42,12.90
2018,07,13,08,43,12.90
2018,07,13,08,44,14.50
2018,07,13,08,45,14.50
2018,07,13,08,46,16.10
2018,07,13,08,47,11.30
2018,07,13,08,48,9.60
2018,07,13,08,49,12.90
2018,07,13,08,50,12.90
2018,07,13,08,51,12.90
2018,07,13,08,52,14.50
2018,07,13,08,53,12.90
2018,07,13,08,54,14.50
2018,07,13,08,55,11.30
2018,07,13,08,56,16.10
2018,07,13,08,57,14.50
2018,07,13,08,58,14.50
2018,07,13,08,59,14.50
2018,07,13,09,00,16.10
2018,07,13,09,01,11.30
2018,07,13,09,02,14.50
2018,07,13,09,03,12.90
2018,07,13,09,04,14.50
2018,07,13,09,05,12.90
2018,07,13,09,06,12.90
2018,07,13,09,07,11.30
2018,07,13,09,08,17.70
2018,07,13,09,09,16.10
2018,07,13,09,10,16.10
2018,07,13,09,11,16.10
2018,07,13,09,12,16.10
2018,07,13,09,13,16.10
2018,07,13,09,14,20.90
2018,07,13,09,15,16.10
2018,07,13,09,16,14.50
2018,07,13,09,17,16.10
2018,07,13,09,18,16.10
2018,07,13,09,19,17.70
2018,07,13,09,20,17.70
2018,07,13,09,21,14.50
2018,07,13,09,22,17.70
2018,07,13,09,23,8.10
2018,07,13,09,24,12.90
2018,07,13,09,25,16.10
2018,07,13,09,26,16.10
2018,07,13,09,27,17.70
2018,07,13,09,28,9.60
2018,07,13,09,29,20.90
2018,07,13,09,30,16.10
2018,07,13,09,31,14.50
2018,07,13,09,32,17.70
2018,07,13,09,33,16.10
2018,07,13,09,34,22.50
2018,07,13,09,35,19.30
2018,07,13,09,36,12.90
2018,07,13,09,37,16.10
2018,07,13,09,38,17.70
2018,07,13,09,39,14.50
2018,07,13,09,40,12.90
2018,07,13,09,41,17.70
2018,07,13,09,42,16.10
2018,07,13,09,43,22.50
2018,07,13,09,44,22.50
2018,07,13,09,45,16.10
2018,07,13,09,46,20.90
2018,07,13,09,47,16.10
2018,07,13,09,48,14.50
2018,07,13,09,49,12.90
2018,07,13,09,50,12.90
2018,07,13,09,51,17.70
2018,07,13,09,52,19.30
2018,07,13,09,53,20.90
2018,07,13,09,54,16.10
2018,07,13,09,55,12.90
2018,07,13,09,56,17.70
2018,07,13,09,57,17.70
2018,07,13,09,58,14.50
2018,07,13,09,59,14.50
2018,07,13,10,00,17.70
2018,07,13,10,01,20.90
2018,07,13,10,02,19.30
2018,07,13,10,03,17.70
2018,07,13,10,04,20.90
2018,07,13,10,05,17.70
2018,07,13,10,06,25.70
2018,07,13,10,07,19.30
2018,07,13,10,08,17.70
2018,07,13,10,09,17.70
2018,07,13,10,10,19.30
2018,07,13,10,11,17.70
2018,07,13,10,12,20.90
2018,07,13,10,13,22.50
2018,07,13,10,14,16.10
2018,07,13,10,15,25.70
2018,07,13,10,16,22.50
2018,07,13,10,17,20.90
2018,07,13,10,18,16.10
2018,07,13,10,19,17.70
2018,07,13,10,20,17.70
2018,07,13,10,21,12.90
2018,07,13,10,22,16.10
2018,07,13,10,23,19.30
2018,07,13,10,24,16.10
2018,07,13,10,25,19.30
2018,07,13,10,26,17.70
2018,07,13,10,27,20.90
2018,07,13,10,28,19.30
2018,07,13,10,29,22.50
2018,07,13,10,30,17.70
2018,07,13,10,31,16.10
2018,07,13,10,32,14.50
2018,07,13,10,33,14.50
2018,07,13,10,34,17.70
2018,07,13,10,35,17.70
2018,07,13,10,36,16.10
2018,07,13,10,37,14.50
2018,07,13,10,38,14.50
2018,07,13,10,39,20.90
2018,07,13,10,40,19.30
2018,07,13,10,41,19.30
2018,07,13,10,42,17.70
2018,07,13,10,43,14.50
2018,07,13,10,44,19.30
2018,07,13,10,45,19.30
2018,07,13,10,46,27.40
2018,07,13,10,47,17.70
2018,07,13,10,48,25.70
2018,07,13,10,49,19.30
2018,07,13,10,50,25.70
2018,07,13,10,51,16.10
2018,07,13,10,52,20.90
2018,07,13,10,53,17.70
2018,07,13,10,54,20.90
2018,07,13,10,55,24.20
2018,07,13,10,56,16.10
2018,07,13,10,57,19.30
2018,07,13,10,58,17.70
2018,07,13,10,59,14.50
2018,07,13,11,00,14.50
2018,07,13,11,01,17.70
2018,07,13,11,02,19.30
2018,07,13,11,03,17.70
2018,07,13,11,04,17.70
2018,07,13,11,05,20.90
2018,07,13,11,06,27.40
2018,07,13,11,07,22.50
2018,07,13,11,08,16.10
2018,07,13,11,09,16.10
2018,07,13,11,10,16.10
2018,07,13,11,11,17.70
2018,07,13,11,12,16.10
2018,07,13,11,13,14.50
2018,07,13,11,14,14.50
2018,07,13,11,15,22.50
2018,07,13,11,16,19.30
2018,07,13,11,17,16.10
2018,07,13,11,18,20.90
2018,07,13,11,19,14.50
2018,07,13,11,20,14.50
2018,07,13,11,21,14.50
2018,07,13,11,22,19.30
2018,07,13,11,23,14.50
2018,07,13,11,24,16.10
2018,07,13,11,25,17.70
2018,07,13,11,26,25.70
2018,07,13,11,27,20.90
2018,07,13,11,28,22.50
2018,07,13,11,29,16.10
2018,07,13,11,30,14.50
2018,07,13,11,31,24.20
2018,07,13,11,32,22.50
2018,07,13,11,33,22.50
2018,07,13,11,34,22.50
2018,07,13,11,35,17.70
2018,07,13,11,36,16.10
2018,07,13,11,37,25.70
2018,07,13,11,38,16.10
2018,07,13,11,39,17.70
2018,07,13,11,40,16.10
2018,07,13,11,41,22.50
2018,07,13,11,42,17.70
2018,07,13,11,43,14.50
2018,07,13,11,44,17.70
2018,07,13,11,45,30.60
2018,07,13,11,46,16.10
2018,07,13,11,47,22.50
2018,07,13,11,48,25.70
2018,07,13,11,49,16.10
2018,07,13,11,50,19.30
2018,07,13,11,51,20.90
2018,07,13,11,52,16.10
2018,07,13,11,53,30.60
2018,07,13,11,54,19.30
2018,07,13,11,55,22.50
2018,07,13,11,56,41.80
2018,07,13,11,57,25.70
2018,07,13,11,58,33.80
2018,07,13,11,59,30.60
2018,07,13,12,00,17.70
2018,07,13,12,01,22.50
2018,07,13,12,02,24.20
2018,07,13,12,03,24.20
2018,07,13,12,04,19.30
2018,07,13,12,05,22.50
2018,07,13,12,06,16.10
2018,07,13,12,07,25.70
2018,07,13,12,08,19.30
2018,07,13,12,09,14.50
2018,07,13,12,10,14.50
2018,07,13,12,11,12.90
2018,07,13,12,12,17.70
2018,07,13,12,13,19.30
2018,07,13,12,14,14.50
2018,07,13,12,15,20.90
2018,07,13,12,16,22.50
2018,07,13,12,17,22.50
2018,07,13,12,18,20.90
2018,07,13,12,19,16.10
2018,07,13,12,20,19.30
2018,07,13,12,21,22.50
2018,07,13,12,22,12.90
2018,07,13,12,23,17.70
2018,07,13,12,24,14.50
2018,07,13,12,25,20.90
2018,07,13,12,26,19.30
2018,07,13,12,27,27.40
2018,07,13,12,28,19.30
2018,07,13,12,29,17.70
2018,07,13,12,30,17.70
2018,07,13,12,31,17.70
2018,07,13,12,32,22.50
2018,07,13,12,33,12.90
2018,07,13,12,34,9.60
2018,07,13,12,35,20.90
2018,07,13,12,36,17.70
2018,07,13,12,37,14.50
2018,07,13,12,38,19.30
2018,07,13,12,39,12.90
2018,07,13,12,40,17.70
2018,07,13,12,41,14.50
2018,07,13,12,42,14.50
2018,07,13,12,43,14.50
2018,07,13,12,44,17.70
2018,07,13,12,45,20.90
2018,07,13,12,46,22.50
2018,07,13,12,47,17.70
2018,07,13,12,48,17.70
2018,07,13,12,49,19.30
2018,07,13,12,50,14.50
2018,07,13,12,51,17.70
2018,07,13,12,52,14.50
2018,07,13,12,53,14.50
2018,07,13,12,54,19.30
2018,07,13,12,55,17.70
2018,07,13,12,56,17.70
2018,07,13,12,57,20.90
2018,07,13,12,58,24.20
2018,07,13,12,59,20.90
2018,07,13,13,00,16.10
2018,07,13,13,01,17.70
2018,07,13,13,02,17.70
2018,07,13,13,03,14.50
2018,07,13,13,04,9.60
2018,07,13,13,05,17.70
2018,07,13,13,06,17.70
2018,07,13,13,07,16.10
2018,07,13,13,08,14.50
2018,07,13,13,09,12.90
2018,07,13,13,10,16.10
2018,07,13,13,11,11.30
2018,07,13,13,12,19.30
2018,07,13,13,13,20.90
2018,07,13,13,14,17.70
2018,07,13,13,15,17.70
2018,07,13,13,16,14.50
2018,07,13,13,17,20.90
2018,07,13,13,18,20.90
2018,07,13,13,19,20.90
2018,07,13,13,20,17.70
2018,07,13,13,21,17.70
2018,07,13,13,22,19.30
2018,07,13,13,23,17.70
2018,07,13,13,24,12.90
2018,07,13,13,25,16.10
2018,07,13,13,26,19.30
2018,07,13,13,27,14.50
2018,07,13,13,28,22.50
2018,07,13,13,29,22.50
2018,07,13,13,30,29.00
2018,07,13,13,31,16.10
2018,07,13,13,32,19.30
2018,07,13,13,33,24.20
2018,07,13,13,34,14.50
2018,07,13,13,35,17.70
2018,07,13,13,36,19.30
2018,07,13,13,37,14.50
2018,07,13,13,38,20.90
2018,07,13,13,39,19.30
2018,07,13,13,40,17.70
2018,07,13,13,41,19.30
2018,07,13,13,42,20.90
2018,07,13,13,43,17.70
2018,07,13,13,44,17.70
2018,07,13,13,45,22.50
2018,07,13,13,46,19.30
2018,07,13,13,47,16.10
2018,07,13,13,48,17.70
2018,07,13,13,49,17.70
2018,07,13,13,50,14.50
2018,07,13,13,51,16.10
2018,07,13,13,52,16.10
2018,07,13,13,53,14.50
2018,07,13,13,54,19.30
2018,07,13,13,55,16.10
2018,07,13,13,56,20.90
2018,07,13,13,57,16.10
2018,07,13,13,58,17.70
2018,07,13,13,59,17.70
2018,07,13,14,00,11.30
2018,07,13,14,01,14.50
2018,07,13,14,02,9.60
2018,07,13,14,03,12.90
2018,07,13,14,04,16.10
2018,07,13,14,05,14.50
2018,07,13,14,06,17.70
2018,07,13,14,07,11.30
2018,07,13,14,08,17.70
2018,07,13,14,09,12.90
2018,07,13,14,10,12.90
2018,07,13,14,11,12.90
2018,07,13,14,12,12.90
2018,07,13,14,13,14.50
2018,07,13,14,14,16.10
2018,07,13,14,15,11.30
2018,07,13,14,16,16.10
2018,07,13,14,17,12.90
2018,07,13,14,18,14.50
2018,07,13,14,19,11.30
2018,07,13,14,20,16.10
2018,07,13,14,21,12.90
2018,07,13,14,22,14.50
2018,07,13,14,23,17.70
2018,07,13,14,24,20.90
2018,07,13,14,25,17.70
2018,07,13,14,26,11.30
2018,07,13,14,27,12.90
2018,07,13,14,28,14.50
2018,07,13,14,29,16.10
2018,07,13,14,30,17.70
2018,07,13,14,31,12.90
2018,07,13,14,32,16.10
2018,07,13,14,33,16.10
2018,07,13,14,34,12.90
2018,07,13,14,35,16.10
2018,07,13,14,36,16.10
2018,07,13,14,37,14.50
2018,07,13,14,38,20.90
2018,07,13,14,39,12.90
2018,07,13,14,40,17.70
2018,07,13,14,41,11.30
2018,07,13,14,42,16.10
2018,07,13,14,43,19.30
2018,07,13,14,44,12.90
2018,07,13,14,45,11.30
2018,07,13,14,46,16.10
2018,07,13,14,47,17.70
2018,07,13,14,48,20.90
2018,07,13,14,49,16.10
2018,07,13,14,50,20.90
2018,07,13,14,51,20.90
2018,07,13,14,52,20.90
2018,07,13,14,53,17.70
2018,07,13,14,54,17.70
2018,07,13,14,55,14.50
2018,07,13,14,56,14.50
2018,07,13,14,57,12.90
2018,07,13,14,58,11.30
2018,07,13,14,59,14.50
2018,07,13,15,00,14.50
2018,07,13,15,01,17.70
2018,07,13,15,02,17.70
2018,07,13,15,03,11.30
2018,07,13,15,04,14.50
2018,07,13,15,05,16.10
2018,07,13,15,06,11.30
2018,07,13,15,07,14.50
2018,07,13,15,08,17.70
2018,07,13,15,09,11.30
2018,07,13,15,10,11.30
2018,07,13,15,11,12.90
2018,07,13,15,12,17.70
2018,07,13,15,13,12.90
2018,07,13,15,14,12.90
2018,07,13,15,15,12.90
2018,07,13,15,16,16.10
2018,07,13,15,17,17.70
2018,07,13,15,18,17.70
2018,07,13,15,19,16.10
2018,07,13,15,20,17.70
2018,07,13,15,21,14.50
2018,07,13,15,22,14.50
2018,07,13,15,23,19.30
2018,07,13,15,24,14.50
2018,07,13,15,25,16.10
2018,07,13,15,26,14.50
2018,07,13,15,27,12.90
2018,07,13,15,28,14.50
2018,07,13,15,29,17.70
2018,07,13,15,30,19.30
2018,07,13,15,31,16.10
2018,07,13,15,32,14.50
2018,07,13,15,33,17.70
2018,07,13,15,34,14.50
2018,07,13,15,35,14.50
2018,07,13,15,36,11.30
2018,07,13,15,37,12.90
2018,07,13,15,38,16.10
2018,07,13,15,39,14.50
2018,07,13,15,40,12.90
2018,07,13,15,41,12.90
2018,07,13,15,42,14.50
2018,07,13,15,43,12.90
2018,07,13,15,44,16.10
2018,07,13,15,45,12.90
2018,07,13,15,46,14.50
2018,07,13,15,47,12.90
2018,07,13,15,48,14.50
2018,07,13,15,49,12.90
2018,07,13,15,50,11.30
2018,07,13,15,51,16.10
2018,07,13,15,52,14.50
2018,07,13,15,53,11.30
2018,07,13,15,54,16.10
2018,07,13,15,55,14.50
2018,07,13,15,56,16.10
2018,07,13,15,57,16.10
2018,07,13,15,58,16.10
2018,07,13,15,59,16.10
2018,07,13,16,00,14.50
2018,07,13,16,01,16.10
2018,07,13,16,02,14.50
2018,07,13,16,03,12.90
2018,07,13,16,04,12.90
2018,07,13,16,05,11.30
2018,07,13,16,06,14.50
2018,07,13,16,07,16.10
2018,07,13,16,08,12.90
2018,07,13,16,09,11.30
2018,07,13,16,10,12.90
2018,07,13,16,11,12.90
2018,07,13,16,12,12.90
2018,07,13,16,13,9.60
2018,07,13,16,14,12.90
2018,07,13,16,15,12.90
2018,07,13,16,16,11.30
2018,07,13,16,17,12.90
2018,07,13,16,18,8.10
2018,07,13,16,19,11.30
2018,07,13,16,20,14.50
2018,07,13,16,21,14.50
2018,07,13,16,22,16.10
2018,07,13,16,23,14.50
2018,07,13,16,24,14.50
2018,07,13,16,25,16.10
2018,07,13,16,26,16.10
2018,07,13,16,27,12.90
2018,07,13,16,28,16.10
2018,07,13,16,29,12.90
2018,07,13,16,30,11.30
2018,07,13,16,31,12.90
2018,07,13,16,32,14.50
2018,07,13,16,33,11.30
2018,07,13,16,34,11.30
2018,07,13,16,35,9.60
2018,07,13,16,36,9.60
2018,07,13,16,37,12.90
2018,07,13,16,38,16.10
2018,07,13,16,39,12.90
2018,07,13,16,40,12.90
2018,07,13,16,41,11.30
2018,07,13,16,42,14.50
2018,07,13,16,43,11.30
2018,07,13,16,44,17.70
2018,07,13,16,45,12.90
2018,07,13,16,46,11.30
2018,07,13,16,47,11.30
2018,07,13,16,48,14.50
2018,07,13,16,49,14.50
2018,07,13,16,50,12.90
2018,07,13,16,51,14.50
2018,07,13,16,52,11.30
2018,07,13,16,53,11.30
2018,07,13,16,54,17.70
2018,07,13,16,55,12.90
2018,07,13,16,56,17.70
2018,07,13,16,57,17.70
2018,07,13,16,58,17.70
2018,07,13,16,59,11.30
2018,07,13,17,00,11.30
2018,07,13,17,01,14.50
2018,07,13,17,02,12.90
2018,07,13,17,03,19.30
2018,07,13,17,04,19.30
2018,07,13,17,05,19.30
2018,07,13,17,06,17.70
2018,07,13,17,07,16.10
2018,07,13,17,08,16.10
2018,07,13,17,09,14.50
2018,07,13,17,10,14.50
2018,07,13,17,11,20.90
2018,07,13,17,12,8.10
2018,07,13,17,13,12.90
2018,07,13,17,14,12.90
2018,07,13,17,15,14.50
2018,07,13,17,16,9.60
2018,07,13,17,17,12.90
2018,07,13,17,18,12.90
2018,07,13,17,19,16.10
2018,07,13,17,20,9.60
2018,07,13,17,21,11.30
2018,07,13,17,22,14.50
2018,07,13,17,23,16.10
2018,07,13,17,24,16.10
2018,07,13,17,25,12.90
2018,07,13,17,26,16.10
2018,07,13,17,27,16.10
2018,07,13,17,28,11.30
2018,07,13,17,29,14.50
2018,07,13,17,30,16.10
2018,07,13,17,31,16.10
2018,07,13,17,32,14.50
2018,07,13,17,33,12.90
2018,07,13,17,34,12.90
2018,07,13,17,35,14.50
2018,07,13,17,36,12.90
2018,07,13,17,37,11.30
2018,07,13,17,38,12.90
2018,07,13,17,39,9.60
2018,07,13,17,40,11.30
2018,07,13,17,41,9.60
2018,07,13,17,42,16.10
2018,07,13,17,43,11.30
2018,07,13,17,44,11.30
2018,07,13,17,45,12.90
2018,07,13,17,46,11.30
2018,07,13,17,47,16.10
2018,07,13,17,48,12.90
2018,07,13,17,49,9.60
2018,07,13,17,50,9.60
2018,07,13,17,51,11.30
2018,07,13,17,52,11.30
2018,07,13,17,53,12.90
2018,07,13,17,54,14.50
2018,07,13,17,55,11.30
2018,07,13,17,56,12.90
2018,07,13,17,57,11.30
2018,07,13,17,58,14.50
2018,07,13,17,59,8.10
2018,07,13,18,00,14.50
2018,07,13,18,01,11.30
2018,07,13,18,02,11.30
2018,07,13,18,03,16.10
2018,07,13,18,04,16.10
2018,07,13,18,05,11.30
2018,07,13,18,06,16.10
2018,07,13,18,07,12.90
2018,07,13,18,08,11.30
2018,07,13,18,09,12.90
2018,07,13,18,10,12.90
2018,07,13,18,11,11.30
2018,07,13,18,12,14.50
2018,07,13,18,13,11.30
2018,07,13,18,14,9.60
2018,07,13,18,15,9.60
2018,07,13,18,16,8.10
2018,07,13,18,17,11.30
2018,07,13,18,18,14.50
2018,07,13,18,19,14.50
2018,07,13,18,20,9.60
2018,07,13,18,21,9.60
2018,07,13,18,22,20.90
2018,07,13,18,23,11.30
2018,07,13,18,24,9.60
2018,07,13,18,25,12.90
2018,07,13,18,26,16.10
2018,07,13,18,27,16.10
2018,07,13,18,28,16.10
2018,07,13,18,29,11.30
2018,07,13,18,30,17.70
2018,07,13,18,31,11.30
2018,07,13,18,32,6.40
2018,07,13,18,33,11.30
2018,07,13,18,34,11.30
2018,07,13,18,35,11.30
2018,07,13,18,36,11.30
2018,07,13,18,37,12.90
2018,07,13,18,38,11.30
2018,07,13,18,39,12.90
2018,07,13,18,40,9.60
2018,07,13,18,41,11.30
2018,07,13,18,42,8.10
2018,07,13,18,43,11.30
2018,07,13,18,44,14.50
2018,07,13,18,45,12.90
2018,07,13,18,46,11.30
2018,07,13,18,47,12.90
2018,07,13,18,48,9.60
2018,07,13,18,49,11.30
2018,07,13,18,50,12.90
2018,07,13,18,51,11.30
2018,07,13,18,52,17.70
2018,07,13,18,53,9.60
2018,07,13,18,54,12.90
2018,07,13,18,55,16.10
2018,07,13,18,56,24.20
2018,07,13,18,57,16.10
2018,07,13,18,58,12.90
2018,07,13,18,59,16.10
2018,07,13,19,00,12.90
2018,07,13,19,01,11.30
2018,07,13,19,02,14.50
2018,07,13,19,03,11.30
2018,07,13,19,04,9.60
2018,07,13,19,05,11.30
2018,07,13,19,06,14.50
2018,07,13,19,07,12.90
2018,07,13,19,08,14.50
2018,07,13,19,09,11.30
2018,07,13,19,10,11.30
2018,07,13,19,11,14.50
2018,07,13,19,12,12.90
2018,07,13,19,13,11.30
2018,07,13,19,14,8.10
2018,07,13,19,15,8.10
2018,07,13,19,16,4.80
2018,07,13,19,17,6.40
2018,07,13,19,18,11.30
2018,07,13,19,19,8.10
2018,07,13,19,20,4.80
2018,07,13,19,21,8.10
2018,07,13,19,22,9.60
2018,07,13,19,23,6.40